Location: Sungai Bunut
(2.6333°N, 113.7333°E)
Time: 17:04:12
(UTC+00:00)

Vanguard 3 - Pass Details

Date: 10 December 2023
Orbit: 508 x 3239 km, 33.4° (Epoch: 28 February)

Event Time Altitude Azimuth Distance (km) Brightness Sun altitude
Rises 12:49:27 0° 275° (W) 7,137 12.7 -35.7°
Reaches altitude 10° 12:56:33 10° 289° (WNW) 5,878 11.9 -37.3°
Maximum altitude 13:08:11 21° 331° (NNW) 4,280 10.7 -39.8°
Enters shadow 13:11:29 19° 348° (NNW) 4,116 10.5 -40.6°
Drops below altitude 10° 13:16:59 10° 15° (NNE) 4,315 - -41.8°
Sets 13:21:07 0° 32° (NNE) 4,851 - -42.7°
